Regional Weather Roundup
Issued by NWS Midland/Odessa, TX

Skip options and go directly to product.
Home | Oldest Version | Previous Version | Current Version | All | Text Only | Save Text | Print | Product List | Glossary Off

Skip product version selection by date and time.   

551
ASUS44 KMAF 250110
RWRMAF
MIDLAND AREA WEATHER ROUNDUP
NATIONAL WEATHER SERVICE MIDLAND TX
800 PM CDT THU JUL 24 2014

...IN SOUTHWEST TEXAS AND SOUTHEAST NEW MEXICO...

CITY           SKY/WX    TMP DP  RH WIND       PRES   REMARKS
ALPINE         MOSUNNY   88  46  22 E9        30.18R
ANDREWS        FAIR      95  49  21 SE12      30.04S
ARTESIA        SUNNY     95  43  16 SE10      30.04S
BIG SPRING     PTCLDY    94  58  29 E8        30.03S
CARLSBAD       PTSUNNY   98  40  13 SE8       30.01S
DRYDEN           N/A     92  64  39 SE24G32   29.98R
FORT STOCKTON  PTCLDY    92  52  25 E9        30.02S
GUAD PASS      SUNNY     84  42  22 E17         N/A
HOBBS          SUNNY     93  45  18 E14       30.07S
MARFA          MOSUNNY   86  46  25 E14       30.18S
MIDLAND AIRPK  PTCLDY    95  53  23 E12       30.02R
MIDLAND INTL   PTCLDY    94  57  28 S12       30.02R
ODESSA         CLEAR     96  52  22 E12       30.02F
PECOS          MOSUNNY   95  51  22 E7        29.98S
PRESIDIO       FAIR      96  48  19 NE10G17   29.96S
SEMINOLE       CLEAR     94  45  18 E9        30.06S
SNYDER         CLEAR     94  58  29 E10       30.02R
WINK           SUNNY     98  47  17 SE8       29.98S
$$
...OTHER STATIONS IN TEXAS...

CITY           SKY/WX    TMP DP  RH WIND       PRES   REMARKS
ABILENE        CLEAR     93  64  38 SE14      29.99S
AMARILLO       CLEAR     90  56  31 S16       30.06S
AUSTIN         PTCLDY    89  69  51 E8        29.94R
BROWNSVILLE    MOCLDY    86  75  69 SE13      29.93S
CORPUS CHRISTI MOCLDY    87  71  58 SE15      29.94R
DALLAS FTW     CLEAR     91  64  40 E8        29.94F
DEL RIO        MOCLDY    91  64  40 E9        29.91R
EL PASO        MOSUNNY   94  47  20 E7        30.03F
HOUSTON INT    PTCLDY    87  73  62 SE8       29.93S
LUBBOCK        PTCLDY    92  55  28 SE12      30.06F
SAN ANGELO     CLEAR     93  62  35 E13       29.99R
SAN ANTONIO    PTCLDY    89  65  44 E12       29.95S
WACO           CLEAR     91  64  40 E9        29.94R
WICHITA FALLS  NOT AVBL
$$
...OTHER LOCATIONS IN NEW MEXICO...

CITY           SKY/WX    TMP DP  RH WIND       PRES   REMARKS
ALAMAGORDO     MOSUNNY   93  39  15 S14G20    30.07S
ALBUQUERQUE    MOSUNNY   90  38  16 SW13      30.15F
CANNON AFB     SUNNY     91  51  26 S9        30.11F
CLOVIS         NOT AVBL
HOLLOMAN AFB   MOSUNNY   95  41  15 S15       30.05F
ROSWELL        SUNNY     96  43  16 SE10      30.04F
RUIDOSO        MOSUNNY   77  41  27 MISG      30.32F
SANTA FE       SUNNY     85  39  19 SW12      30.22S
TRUTH OR CONSE SUNNY     92  39  15 S13       30.11F
TUCUMCARI      SUNNY     95  46  18 SW14      30.04F
$$

USA.gov is the U.S. government's official web portal to all federal, state and local government web resources and services.